| time (UTC) | temp F | wind direction | speed knots | gust knots | rain 1hr in | rain 24hr in | rain mn in | humidity % | barometer mb |
| 20260507181600 | 55 | 265 | 6.1 | 18.2 | 0.04 | 0.06 | 0.06 | 88 | 1012.3 |
| 20260507180107 | 56 | 254 | 12.2 | 22.6 | 0.04 | 0.05 | 0.05 | 87 | 1012.2 |
| 20260507174627 | 56 | 250 | 6.1 | 24.3 | 0.04 | 0.04 | 0.04 | 86 | 1012.3 |
| 20260507173052 | 57 | 261 | 11.3 | 23.5 | 0.02 | 0.02 | 0.02 | 84 | 1012.2 |
| 20260507171603 | 59 | 240 | 9.6 | 20.9 | 0.02 | 0.02 | 0.02 | 81 | 1011.9 |
| 20260507170046 | 60 | 235 | 0.9 | 12.2 | 0.01 | 0.01 | 0.01 | 76 | 1011.8 |
| 20260507164551 | 62 | 269 | 0.0 | 0.0 | 0.00 | 0.00 | 0.00 | 71 | 1011.7 |
| 20260507163043 | 62 | 271 | 7.0 | 20.0 | 0.00 | 0.00 | 0.00 | 66 | 1011.5 |
| 20260507161547 | 63 | 267 | 6.1 | 23.5 | 0.00 | 0.00 | 0.00 | 64 | 1011.1 |
| 20260507160108 | 63 | 270 | 13.0 | 28.7 | 0.00 | 0.00 | 0.00 | 61 | 1011.0 |
| 20260507154540 | 65 | 274 | 7.0 | 19.1 | 0.00 | 0.00 | 0.00 | 56 | 1010.7 |
| 20260507153039 | 65 | 257 | 4.3 | 17.4 | 0.00 | 0.00 | 0.00 | 55 | 1010.5 |
| 20260507151539 | 66 | 262 | 6.1 | 16.5 | 0.00 | 0.00 | 0.00 | 54 | 1010.5 |
| 20260507150039 | 68 | 240 | 2.6 | 12.2 | 0.00 | 0.00 | 0.00 | 51 | 1010.4 |
| 20260507144538 | 68 | 240 | 0.0 | 4.3 | 0.00 | 0.00 | 0.00 | 49 | 1010.4 |
| 20260507143037 | 69 | 240 | 0.9 | 10.4 | 0.00 | 0.00 | 0.00 | 50 | 1010.4 |
| 20260507141537 | 70 | 240 | 1.7 | 12.2 | 0.00 | 0.00 | 0.00 | 49 | 1010.5 |
| 20260507140044 | 69 | 196 | 2.6 | 13.0 | 0.00 | 0.00 | 0.00 | 51 | 1010.4 |
| 20260507134533 | 68 | 230 | 0.0 | 7.8 | 0.00 | 0.00 | 0.00 | 51 | 1010.5 |
| 20260507133034 | 68 | 269 | 3.5 | 16.5 | 0.00 | 0.00 | 0.00 | 51 | 1010.6 |
| 20260507131603 | 68 | 317 | 5.2 | 12.2 | 0.00 | 0.00 | 0.00 | 49 | 1010.7 |
| 20260507130031 | 68 | 340 | 0.0 | 6.1 | 0.00 | 0.00 | 0.00 | 49 | 1010.7 |
| 20260507124532 | 68 | 340 | 0.0 | 8.7 | 0.00 | 0.00 | 0.00 | 49 | 1010.8 |
| 20260507123040 | 69 | 340 | 0.0 | 4.3 | 0.00 | 0.00 | 0.00 | 48 | 1010.8 |
| 20260507121527 | 68 | 347 | 0.9 | 12.2 | 0.00 | 0.00 | 0.00 | 51 | 1010.8 |
| 20260507120030 | 67 | 354 | 4.3 | 16.5 | 0.00 | 0.00 | 0.00 | 51 | 1011.1 |
| 20260507114525 | 66 | 291 | 11.3 | 23.5 | 0.00 | 0.00 | 0.00 | 53 | 1011.0 |
| 20260507113054 | 66 | 316 | 9.6 | 23.5 | 0.00 | 0.00 | 0.00 | 52 | 1011.0 |
| 20260507111525 | 66 | 323 | 8.7 | 22.6 | 0.00 | 0.00 | 0.00 | 53 | 1011.1 |
| 20260507110019 | 65 | 350 | 5.2 | 16.5 | 0.00 | 0.00 | 0.00 | 53 | 1011.2 |
| 20260507104519 | 65 | 338 | 7.0 | 20.0 | 0.00 | 0.00 | 0.00 | 54 | 1011.4 |
| 20260507103015 | 64 | 343 | 10.4 | 26.1 | 0.00 | 0.00 | 0.00 | 54 | 1011.5 |
| 20260507101522 | 64 | 359 | 1.7 | 18.2 | 0.00 | 0.00 | 0.00 | 54 | 1011.6 |
| 20260507100027 | 64 | 359 | 3.5 | 17.4 | 0.00 | 0.00 | 0.00 | 53 | 1011.5 |
| 20260507094510 | 64 | 334 | 7.0 | 23.5 | 0.00 | 0.00 | 0.00 | 54 | 1011.5 |
| 20260507093008 | 64 | 336 | 5.2 | 19.1 | 0.00 | 0.00 | 0.00 | 55 | 1011.5 |
| 20260507091505 | 63 | 323 | 8.7 | 24.3 | 0.00 | 0.00 | 0.00 | 56 | 1011.4 |
| 20260507090006 | 63 | 351 | 0.9 | 13.9 | 0.00 | 0.00 | 0.00 | 57 | 1011.2 |
| 20260507084502 | 62 | 324 | 0.0 | 8.7 | 0.00 | 0.00 | 0.00 | 58 | 1011.0 |
| 20260507083059 | 62 | 327 | 0.9 | 15.6 | 0.00 | 0.00 | 0.00 | 57 | 1010.9 |
| 20260507081558 | 62 | 348 | 0.9 | 16.5 | 0.00 | 0.00 | 0.00 | 58 | 1010.5 |
| 20260507080057 | 62 | 312 | 13.0 | 26.9 | 0.00 | 0.00 | 0.00 | 58 | 1010.5 |
| 20260507074556 | 61 | 308 | 0.9 | 21.7 | 0.00 | 0.00 | 0.00 | 59 | 1010.7 |
| 20260507073058 | 61 | 294 | 2.6 | 14.8 | 0.00 | 0.00 | 0.00 | 61 | 1010.4 |
| 20260507071551 | 60 | 314 | 0.9 | 20.0 | 0.00 | 0.00 | 0.00 | 62 | 1010.1 |
| 20260507064547 | 59 | 323 | 13.0 | 27.8 | 0.00 | 0.00 | 0.00 | 63 | 1010.0 |
| 20260507063041 | 59 | 336 | 13.9 | 30.4 | 0.00 | 0.00 | 0.00 | 62 | 1010.1 |
| 20260507061540 | 59 | 334 | 3.5 | 20.0 | 0.00 | 0.00 | 0.00 | 63 | 1009.8 |
| 20260507060040 | 59 | 323 | 8.7 | 24.3 | 0.00 | 0.00 | 0.00 | 64 | 1009.7 |
| 20260507054539 | 59 | 329 | 1.7 | 27.8 | 0.00 | 0.00 | 0.00 | 64 | 1009.5 |
| 20260507053031 | 59 | 331 | 7.0 | 28.7 | 0.00 | 0.00 | 0.00 | 65 | 1009.3 |
| 20260507051528 | 59 | 329 | 13.0 | 33.0 | 0.00 | 0.00 | 0.00 | 64 | 1009.2 |
| 20260507050048 | 59 | 329 | 16.5 | 26.1 | 0.00 | 0.00 | 0.00 | 64 | 1008.9 |
| 20260507044523 | 58 | 337 | 15.6 | 24.3 | 0.00 | 0.00 | 0.00 | 64 | 1008.6 |
| 20260507043019 | 58 | 327 | 14.8 | 29.5 | 0.00 | 0.00 | 0.00 | 65 | 1008.3 |
| 20260507041514 | 58 | 341 | 19.1 | 32.2 | 0.00 | 0.00 | 0.00 | 64 | 1008.0 |
| 20260507040014 | 59 | 329 | 16.5 | 33.9 | 0.00 | 0.00 | 0.00 | 64 | 1008.0 |
| 20260507034511 | 59 | 304 | 16.5 | 33.0 | 0.00 | 0.00 | 0.00 | 65 | 1007.9 |
| 20260507033007 | 59 | 348 | 19.1 | 39.1 | 0.00 | 0.00 | 0.00 | 65 | 1007.9 |
| 20260507031506 | 59 | 322 | 13.9 | 35.6 | 0.00 | 0.00 | 0.00 | 65 | 1007.6 |
| 20260507030005 | 59 | 323 | 21.7 | 41.7 | 0.00 | 0.00 | 0.00 | 66 | 1007.5 |
| 20260507024600 | 59 | 340 | 22.6 | 37.4 | 0.00 | 0.00 | 0.00 | 66 | 1007.4 |
| 20260507023057 | 60 | 337 | 17.4 | 38.2 | 0.00 | 0.00 | 0.00 | 67 | 1007.3 |
| 20260507021604 | 60 | 347 | 13.0 | 35.6 | 0.00 | 0.00 | 0.00 | 67 | 1007.4 |
| 20260507020054 | 60 | 324 | 11.3 | 28.7 | 0.00 | 0.00 | 0.00 | 66 | 1007.3 |
| 20260507014556 | 60 | 344 | 15.6 | 26.9 | 0.00 | 0.00 | 0.00 | 66 | 1007.2 |
| 20260507013050 | 60 | 351 | 15.6 | 29.5 | 0.00 | 0.00 | 0.00 | 67 | 1007.2 |
| 20260507011555 | 61 | 319 | 18.2 | 36.5 | 0.00 | 0.00 | 0.00 | 67 | 1007.0 |
| 20260507010047 | 61 | 332 | 17.4 | 43.4 | 0.00 | 0.00 | 0.00 | 66 | 1006.9 |
| 20260507004545 | 61 | 342 | 20.0 | 39.1 | 0.00 | 0.00 | 0.00 | 65 | 1007.0 |
| 20260507003042 | 62 | 325 | 9.6 | 30.4 | 0.00 | 0.00 | 0.00 | 64 | 1006.8 |
| 20260507001540 | 62 | 353 | 20.0 | 36.5 | 0.00 | 0.00 | 0.00 | 64 | 1006.6 |
| 20260507000038 | 62 | 333 | 21.7 | 38.2 | 0.00 | 0.00 | 0.00 | 65 | 1006.5 |
| 20260506234548 | 62 | 344 | 20.0 | 42.6 | 0.00 | 0.00 | 0.00 | 66 | 1006.1 |
| 20260506233034 | 62 | 339 | 22.6 | 42.6 | 0.00 | 0.00 | 0.00 | 70 | 1006.3 |
| 20260506231532 | 62 | 321 | 19.1 | 35.6 | 0.00 | 0.00 | 0.00 | 70 | 1006.2 |
| 20260506230032 | 63 | 309 | 17.4 | 40.8 | 0.00 | 0.00 | 0.00 | 68 | 1006.1 |
| 20260506224527 | 63 | 319 | 6.1 | 25.2 | 0.00 | 0.00 | 0.00 | 67 | 1005.8 |
| 20260506223024 | 62 | 289 | 0.0 | 1.7 | 0.00 | 0.00 | 0.00 | 69 | 1005.6 |
| 20260506221523 | 62 | 290 | 0.0 | 0.0 | 0.00 | 0.00 | 0.00 | 69 | 1005.3 |
| 20260506220028 | 63 | 268 | 6.1 | 13.0 | 0.00 | 0.00 | 0.00 | 68 | 1004.9 |
| 20260506214517 | 63 | 217 | 0.9 | 13.0 | 0.00 | 0.00 | 0.00 | 66 | 1004.3 |
| 20260506213022 | 64 | 224 | 3.5 | 15.6 | 0.00 | 0.00 | 0.00 | 66 | 1004.0 |
| 20260506211516 | 64 | 220 | 4.3 | 16.5 | 0.00 | 0.00 | 0.00 | 66 | 1004.0 |
| 20260506210015 | 64 | 235 | 5.2 | 15.6 | 0.00 | 0.00 | 0.00 | 65 | 1003.7 |
| 20260506204515 | 65 | 213 | 9.6 | 20.9 | 0.00 | 0.00 | 0.00 | 65 | 1003.7 |
| 20260506203023 | 65 | 210 | 8.7 | 20.9 | 0.00 | 0.00 | 0.00 | 65 | 1003.7 |
| 20260506201514 | 65 | 192 | 7.0 | 20.0 | 0.00 | 0.00 | 0.00 | 63 | 1003.6 |
| 20260506200014 | 66 | 198 | 2.6 | 18.2 | 0.00 | 0.00 | 0.00 | 62 | 1003.6 |
| 20260506194513 | 67 | 206 | 12.2 | 26.1 | 0.00 | 0.00 | 0.00 | 61 | 1003.1 |
| 20260506193016 | 67 | 246 | 13.0 | 31.3 | 0.00 | 0.00 | 0.00 | 59 | 1002.9 |
| 20260506191512 | 67 | 213 | 16.5 | 36.5 | 0.00 | 0.00 | 0.00 | 59 | 1002.8 |
| 20260506190010 | 68 | 215 | 15.6 | 38.2 | 0.00 | 0.00 | 0.00 | 58 | 1002.8 |
| 20260506184511 | 68 | 225 | 20.9 | 38.2 | 0.00 | 0.00 | 0.00 | 57 | 1002.6 |
| 20260506183010 | 68 | 235 | 19.1 | 34.8 | 0.00 | 0.00 | 0.00 | 57 | 1002.5 |